OpenBCM V1.13 (Linux)

Packet Radio Mailbox

DB0FHN

[JN59NK Nuernberg]

 Login: GUEST





  
W4DPH  > KEPS     08.02.03 03:26l 151 Lines 3948 Bytes #999 (0) @ AMSAT
BID : ORB03037.O
Read: DB0FHN GUEST
Subj: Orbital Elements  03037.OSCAR
Path: DB0FHN<DB0RGB<DB0MRW<DB0ERF<DK0MNL<DB0FBB<DB0GOS<ON0AR<ON0AR<7M3TJZ<
      WB0TAX<W4DPH
Sent: 030208/0117Z @:W4DPH.#TPA.FL.USA.NOAM #:45797 [CLW] FBB $:ORB03037.O
From: W4DPH@W4DPH.#TPA.FL.USA.NOAM
To  : KEPS@AMSAT


HR AMSAT ORBITAL ELEMENTS FOR OSCAR SATELLITES
FROM WA5QGD FORT WORTH,TX February 6, 2003
SEND SUBSCRIBE/UNSUBSCRIBE TO majordomo@amsat.org ONLY
BID: ORB03037.O
TO ALL RADIO AMATEURS BT

Satellite: AO-07
Catalog number: 07530
Epoch time:      03036.20437182
Element set:     147
Inclination:      101.7637 deg
RA of node:        84.1153 deg
Eccentricity:    0.0012233
Arg of perigee:   103.3442 deg
Mean anomaly:     256.8994 deg
Mean motion:   12.53564198 rev/day
Decay rate:       -2.9e-07 rev/day^2
Epoch rev:           29151
Checksum:              276

Satellite: AO-10
Catalog number: 14129
Epoch time:      03036.77933919
Element set:     915
Inclination:       25.9013 deg
RA of node:       166.4253 deg
Eccentricity:    0.6030072
Arg of perigee:   325.3874 deg
Mean anomaly:       7.1450 deg
Mean motion:    2.05865592 rev/day
Decay rate:        9.5e-07 rev/day^2
Epoch rev:           14777
Checksum:              300

Satellite: UO-11
Catalog number: 14781
Epoch time:      03037.42510968
Element set:      63
Inclination:       98.1150 deg
RA of node:        11.2568 deg
Eccentricity:    0.0008143
Arg of perigee:   249.8701 deg
Mean anomaly:     110.1635 deg
Mean motion:   14.77955538 rev/day
Decay rate:      1.431e-05 rev/day^2
Epoch rev:            1444
Checksum:              276

Satellite: RS-10/11
Catalog number: 18129
Epoch time:      03035.88026773
Element set:    0202
Inclination:      082.9252 deg
RA of node:       156.6789 deg
Eccentricity:    0.0010268
Arg of perigee:   268.2163 deg
Mean anomaly:     091.7811 deg
Mean motion:   13.72698997 rev/day
Decay rate:        2.9e-07 rev/day^2
Epoch rev:           78263
Checksum:              331

Satellite: FO-20
Catalog number: 20480
Epoch time:      03035.90334722
Element set:     460
Inclination:       99.0443 deg
RA of node:         1.2180 deg
Eccentricity:    0.0540880
Arg of perigee:    34.8034 deg
Mean anomaly:     328.7225 deg
Mean motion:   12.83329030 rev/day
Decay rate:       -2.9e-07 rev/day^2
Epoch rev:           60876
Checksum:              265

Satellite: RS-12/13
Catalog number: 21089
Epoch time:      03036.87352593
Element set:     488
Inclination:       82.9217 deg
RA of node:       190.7918 deg
Eccentricity:    0.0028735
Arg of perigee:   324.6877 deg
Mean anomaly:      35.2379 deg
Mean motion:   13.74402697 rev/day
Decay rate:        5.5e-07 rev/day^2
Epoch rev:           60204
Checksum:              332

Satellite: RS-15
Catalog number: 23439
Epoch time:      03035.98978404
Element set:    0687
Inclination:      064.8155 deg
RA of node:       063.4409 deg
Eccentricity:    0.0147099
Arg of perigee:   117.8231 deg
Mean anomaly:     243.7689 deg
Mean motion:   11.27547572 rev/day
Decay rate:       -4.1e-07 rev/day^2
Epoch rev:           33406
Checksum:              329

Satellite: FO-29
Catalog number: 24278
Epoch time:      03036.96872375
Element set:     558
Inclination:       98.5339 deg
RA of node:       189.8992 deg
Eccentricity:    0.0349898
Arg of perigee:   249.1829 deg
Mean anomaly:     107.1505 deg
Mean motion:   13.52870728 rev/day
Decay rate:        1.0e-07 rev/day^2
Epoch rev:           31960
Checksum:              363

Satellite: SO-33
Catalog number: 25509
Epoch time:      03036.71314972
Element set:     772
Inclination:       31.4279 deg
RA of node:       225.7753 deg
Eccentricity:    0.0357762
Arg of perigee:   190.6789 deg
Mean anomaly:     168.6064 deg
Mean motion:   14.27411462 rev/day
Decay rate:       7.05e-06 rev/day^2
Epoch rev:           22347
Checksum:              319

Satellite: AO-40
Catalog number: 26609
Epoch time:      03035.10689355
Element set:    0310
Inclination:      008.0513 deg
RA of node:       066.8265 deg
Eccentricity:    0.7939440
Arg of perigee:   140.0872 deg
Mean anomaly:     318.9916 deg
Mean motion:   01.25596472 rev/day
Decay rate:      -1.69e-06 rev/day^2
Epoch rev:           01040
Checksum:              297



Read previous mail | Read next mail


 13.06.2026 16:09:26lGo back Go up